Voltar ao catálogo

CZ-4C R/B

AtivoSSO
NORAD 41039·ROCKET BODY·🇨🇳 China

Lançado Nov 26, 2015 de Taiyuan Satellite Launch Center

Loading…

Próximas Passagens (próximas 24 horas)

TLE

AtualizadoSource: Space-Track

Época: Sep 13, 2026, 22:51 UTC

1 41039U 15069B   26256.95244502  .00007292  00000-0  21621-3 0  9995
2 41039  97.4681 327.8836 0053616 206.7286 153.1191 15.33704385595710

Acompanhe CZ-4C R/B em tempo real com AllMySat

Download on the App Store